Regional Weather Roundup
Issued by NWS

Home | Current Version | Previous Version | Graphics & Text | Print | Product List | Glossary On
Versions: 1 2 3 4 5 6 7 8 9 10 11 12 13 14 15 16 17 18 19 20 21 22 23 24 25 26 27 28 29 30 31 32 33 34 35 36 37 38 39 40 41 42 43 44 45 46 47 48 49 50
000
ASUS43 KFSD 222002
RWRSD

WEATHER ROUNDUP FOR SOUTH DAKOTA
NATIONAL WEATHER SERVICE SIOUX FALLS SD
300 PM CDT SUN OCT 22 2017

NOTE: "FAIR" INDICATES FEW OR NO CLOUDS BELOW 12,000 FEET WITH NO
SIGNIFICANT WEATHER AND/OR OBSTRUCTIONS TO VISIBILITY.


SDZ001>005-009-010-012>017-222100-
NORTHWEST AND NORTH CENTRAL SOUTH DAKOTA

CITY           SKY/WX    TMP DP  RH WIND       PRES   REMARKS
BUFFALO          N/A     69  30  23 W38G48    29.70F
MOBRIDGE       CLOUDY    66  29  24 S21       29.77F
$$

SDZ012>016-024>037-041>051-057-063-072>074-222100-
SOUTHWEST AND SOUTH CENTRAL SOUTH DAKOTA

CITY           SKY/WX    TMP DP  RH WIND       PRES   REMARKS
RAPID CTY ARPT PTSUNNY   71  29  21 SW14      29.86F
PIERRE         SUNNY     67  23  19 SW13      29.84F
CUSTER         CLOUDY    55  25  31 W15G25    29.98S
PHILIP         SUNNY     70  28  21 SW16      29.86F
PINE RIDGE     CLOUDY    69  28  21 W17G26    29.92F
SPEARFISH      FAIR      66  28  24 SW22G32   29.86F
WINNER         FAIR      69  29  22 W20G25    29.89F
$$

SDZ004>011-016>023-039-040-222100-
NORTHEAST SOUTH DAKOTA

CITY           SKY/WX    TMP DP  RH WIND       PRES   REMARKS
ABERDEEN       SUNNY     68  22  17 SW21G30   29.82F
WATERTOWN      SUNNY     62  32  32 SW18      29.87F
BROOKINGS      SUNNY     64  28  25 SW14G24   29.91F
SISSETON         N/A     65  28  24 SW17G26   29.84F
$$

SDZ017-020-022-023-036>040-048>070-222100-
SOUTHEAST SOUTH DAKOTA

CITY           SKY/WX    TMP DP  RH WIND       PRES   REMARKS
SIOUX FALLS    SUNNY     65  33  30 SW12G21   29.94F
HURON          SUNNY     66  26  22 SW18G25   29.88F
CHAMBERLAIN    SUNNY     69  32  24 SW14      29.89S
MITCHELL       SUNNY     68  26  20 SW15G25   29.90F
YANKTON        SUNNY     68  27  21 SW16G24   29.94F
$$

ABBREVIATIONS USED IN REMARKS
   TC - TEMPERATURE IN CELSIUS
  WCI - WIND CHILL INDEX
   HX - HEAT INDEX
  VSB - VISIBILITY





USA.gov is the U.S. government's official web portal to all federal, state and local government web resources and services.